FW6174 Weather Reports


time (UTC)temp
C
wind
direction
speed
KPH
gust
KPH
rain 1hr
cm
rain 24hr
cm
rain mn
cm
humidity
%
barometer
mb
20260508014533 16 359 0.0 3.2 0.00 0.00 0.00 66 1011.1
20260508014031 17 359 0.0 3.2 0.00 0.00 0.00 69 1011.2
20260508013530 16 359 0.0 4.8 0.00 0.00 0.00 65 1011.1
20260508013031 16 279 1.6 4.8 0.00 0.00 0.00 72 1011.1
20260508012531 16 359 1.6 4.8 0.00 0.00 0.00 70 1011.2
20260508012030 16 359 3.2 4.8 0.00 0.00 0.00 66 1011.2
20260508011029 16 359 0.0 0.0 0.00 0.00 0.00 65 1011.2
20260508010528 16 359 0.0 1.6 0.00 0.00 0.00 59 1011.3
20260508010032 16 359 0.0 3.2 0.00 0.00 0.00 60 1011.3
20260508005528 16 359 0.0 3.2 0.00 0.00 0.00 60 1011.3
20260508005027 16 359 0.0 3.2 0.00 0.00 0.00 60 1011.4
20260508004527 16 359 0.0 3.2 0.00 0.00 0.00 57 1011.4
20260508004028 16 359 0.0 3.2 0.00 0.00 0.00 57 1011.4
20260508003528 17 359 1.6 4.8 0.00 0.00 0.00 55 1011.4
20260508003027 17 359 0.0 4.8 0.00 0.00 0.00 54 1011.5
20260508002526 17 359 0.0 4.8 0.00 0.00 0.00 53 1011.5
20260508002029 17 359 0.0 4.8 0.00 0.00 0.00 53 1011.5
20260508001526 17 359 1.6 8.0 0.00 0.00 0.00 55 1011.5
20260508001025 17 359 1.6 8.0 0.00 0.00 0.00 53 1011.5
20260508000529 17 359 1.6 4.8 0.00 0.00 0.00 54 1011.6
20260508000025 17 359 1.6 8.0 0.00 0.00 0.00 57 1011.6
20260507235527 17 359 3.2 6.4 0.00 0.00 0.00 56 1011.6
20260507235024 17 359 1.6 6.4 0.00 0.00 0.00 59 1011.5
20260507234537 16 359 0.0 9.7 0.00 0.00 0.00 59 1011.5
20260507234024 16 359 0.0 9.7 0.00 0.00 0.00 59 1011.6
20260507233524 16 359 3.2 8.0 0.00 0.00 0.00 59 1011.6
20260507233024 16 359 1.6 8.0 0.00 0.00 0.00 60 1011.6
20260507232525 16 359 0.0 8.0 0.00 0.00 0.00 60 1011.7
20260507232023 16 359 1.6 9.7 0.00 0.00 0.00 60 1011.6
20260507231523 16 359 4.8 9.7 0.00 0.00 0.00 59 1011.8
20260507231023 16 359 1.6 8.0 0.00 0.00 0.00 60 1011.7
20260507230523 16 359 1.6 12.9 0.00 0.00 0.00 60 1011.7
20260507230022 16 359 3.2 6.4 0.00 0.00 0.00 61 1011.7
20260507225523 16 359 0.0 4.8 0.00 0.00 0.00 63 1011.8
20260507225024 16 359 0.0 4.8 0.00 0.00 0.00 64 1011.8
20260507224526 16 359 0.0 6.4 0.00 0.00 0.00 64 1011.9
20260507224021 16 359 1.6 6.4 0.00 0.00 0.00 65 1011.9
20260507223521 16 359 1.6 6.4 0.00 0.00 0.00 66 1012.0
20260507223021 16 359 1.6 4.8 0.00 0.00 0.00 67 1012.0
20260507222521 16 359 0.0 4.8 0.00 0.00 0.00 67 1011.9
20260507222020 16 359 1.6 4.8 0.00 0.00 0.00 65 1012.0
20260507221520 16 359 1.6 4.8 0.00 0.00 0.00 67 1012.1
20260507221020 16 359 3.2 14.5 0.00 0.00 0.00 65 1012.1
20260507220519 17 359 1.6 14.5 0.00 0.00 0.00 58 1012.1
20260507220019 17 359 0.0 3.2 0.00 0.00 0.00 57 1012.1
20260507215522 17 359 1.6 6.4 0.00 0.00 0.00 55 1012.0
20260507215018 17 22 1.6 6.4 0.00 0.00 0.00 55 1012.0
20260507214524 17 18 3.2 9.7 0.00 0.00 0.00 56 1012.0
20260507214019 17 32 3.2 8.0 0.00 0.00 0.00 55 1012.0
20260507213519 17 70 1.6 17.7 0.00 0.00 0.00 56 1012.1
20260507213020 17 359 6.4 17.7 0.00 0.00 0.00 56 1012.1
20260507212517 17 359 4.8 14.5 0.00 0.00 0.00 57 1012.2
20260507212017 17 139 3.2 12.9 0.00 0.00 0.00 56 1012.2
20260507211517 17 359 3.2 12.9 0.00 0.00 0.00 57 1012.2
20260507211015 17 359 1.6 9.7 0.00 0.00 0.00 57 1012.4
20260507210521 17 359 3.2 9.7 0.00 0.00 0.00 57 1012.4
20260507210016 16 359 0.0 8.0 0.00 0.00 0.00 57 1012.4
20260507205516 16 359 1.6 9.7 0.00 0.00 0.00 57 1012.4
20260507205016 16 359 1.6 19.3 0.00 0.00 0.00 57 1012.3
20260507204515 16 359 4.8 19.3 0.00 0.00 0.00 57 1012.4
20260507204015 16 359 8.0 25.7 0.00 0.00 0.00 57 1012.4
20260507203521 17 359 6.4 25.7 0.00 0.00 0.00 56 1012.4
20260507203015 17 359 6.4 17.7 0.00 0.00 0.00 57 1012.5
20260507202517 17 359 4.8 16.1 0.00 0.00 0.00 57 1012.4
20260507202014 17 359 3.2 16.1 0.00 0.00 0.00 60 1012.5
20260507201514 17 359 6.4 16.1 0.00 0.00 0.00 59 1012.5
20260507201015 16 359 4.8 16.1 0.00 0.00 0.00 61 1012.6
20260507200513 16 359 3.2 16.1 0.00 0.00 0.00 62 1012.5
20260507200013 16 359 6.4 16.1 0.00 0.00 0.00 62 1012.6
20260507195512 16 359 1.6 12.9 0.00 0.00 0.00 61 1012.8
20260507195013 16 359 4.8 12.9 0.00 0.00 0.00 60 1012.8
20260507194513 17 359 3.2 16.1 0.00 0.00 0.00 59 1012.8
20260507194012 17 359 6.4 16.1 0.00 0.00 0.00 58 1012.9
20260507193513 17 359 3.2 14.5 0.00 0.00 0.00 61 1012.8
20260507193010 17 359 4.8 14.5 0.00 0.00 0.00 61 1012.8
20260507192509 17 359 3.2 12.9 0.00 0.00 0.00 60 1012.8
20260507192009 17 359 3.2 12.9 0.00 0.00 0.00 62 1012.9
20260507191508 16 359 1.6 9.7 0.00 0.00 0.00 64 1013.0
20260507191006 16 359 3.2 8.0 0.00 0.00 0.00 66 1013.0
20260507190506 15 359 1.6 12.9 0.00 0.00 0.00 68 1013.1
20260507190005 15 359 4.8 12.9 0.00 0.00 0.00 66 1013.1
20260507185503 15 359 1.6 16.1 0.00 0.00 0.00 68 1013.1
20260507185003 15 359 4.8 14.5 0.00 0.00 0.00 68 1013.2
20260507184504 15 359 1.6 4.8 0.00 0.00 0.00 68 1013.3
20260507184004 15 359 0.0 4.8 0.00 0.00 0.00 68 1013.3
20260507183503 15 359 0.0 3.2 0.00 0.00 0.00 67 1013.2
20260507183004 15 359 0.0 4.8 0.00 0.00 0.00 68 1013.1
20260507182503 15 359 0.0 8.0 0.00 0.00 0.00 69 1012.9
20260507182007 15 359 1.6 14.5 0.00 0.00 0.00 69 1013.0
20260507181505 15 359 3.2 14.5 0.00 0.00 0.00 71 1013.0
20260507181100 15 359 3.2 6.4 0.00 0.00 0.00 70 1013.0
20260507180559 15 359 1.6 9.7 0.00 0.00 0.00 72 1013.0
20260507180057 14 359 3.2 16.1 0.00 0.00 0.00 71 1013.0
20260507175556 14 359 3.2 16.1 0.00 0.00 0.00 72 1013.0
20260507175056 14 359 3.2 12.9 0.00 0.00 0.00 72 1012.9
20260507174605 14 359 1.6 16.1 0.00 0.00 0.00 73 1013.0
20260507174055 14 359 3.2 9.7 0.00 0.00 0.00 71 1013.2
20260507173554 14 359 3.2 14.5 0.00 0.00 0.00 73 1013.3
20260507173054 14 359 4.8 14.5 0.00 0.00 0.00 71 1013.2
20260507172556 14 359 4.8 14.5 0.00 0.00 0.00 72 1013.4
20260507172054 13 359 1.6 17.7 0.00 0.00 0.00 71 1013.3
20260507171603 13 359 3.2 17.7 0.00 0.00 0.00 70 1013.3
20260507171051 13 359 4.8 16.1 0.00 0.00 0.00 73 1013.4
20260507170552 13 359 3.2 8.0 0.00 0.00 0.00 74 1013.5
20260507170052 13 359 3.2 9.7 0.00 0.00 0.00 76 1013.6
20260507165550 13 359 1.6 9.7 0.00 0.00 0.00 77 1013.8
20260507165052 13 359 4.8 9.7 0.00 0.00 0.00 75 1013.8
20260507164549 12 359 3.2 8.0 0.00 0.00 0.00 74 1013.8
20260507164048 12 359 1.6 4.8 0.00 0.00 0.00 78 1013.7
20260507163547 12 359 0.0 4.8 0.00 0.00 0.00 77 1013.8
20260507163046 12 359 0.0 6.4 0.00 0.00 0.00 79 1013.8
20260507162545 12 359 0.0 4.8 0.00 0.00 0.00 80 1013.9
20260507162045 11 359 0.0 4.8 0.00 0.00 0.00 79 1013.9
20260507161544 11 359 0.0 3.2 0.00 0.00 0.00 82 1013.9
20260507161042 11 359 0.0 8.0 0.00 0.00 0.00 80 1013.9
20260507160542 12 359 1.6 4.8 0.00 0.00 0.00 79 1013.9
20260507160046 12 359 1.6 6.4 0.00 0.00 0.00 80 1013.9
20260507155541 12 359 0.0 8.0 0.00 0.00 0.00 80 1013.8
20260507155041 12 359 1.6 4.8 0.00 0.00 0.00 79 1013.7
20260507154541 12 359 1.6 8.0 0.00 0.00 0.00 79 1013.6
20260507154040 12 359 1.6 8.0 0.00 0.00 0.00 80 1013.6
20260507153539 12 359 1.6 6.4 0.00 0.00 0.00 79 1013.5
20260507153039 12 359 1.6 6.4 0.00 0.00 0.00 80 1013.5
20260507152540 11 359 3.2 9.7 0.00 0.00 0.00 80 1013.3
20260507152040 11 359 1.6 9.7 0.00 0.00 0.00 80 1013.3
20260507151540 11 359 1.6 9.7 0.00 0.00 0.00 82 1013.2
20260507151038 10 359 0.0 3.2 0.00 0.00 0.00 85 1013.2
20260507150538 10 359 0.0 3.2 0.00 0.00 0.00 86 1013.3
20260507150039 10 359 0.0 1.6 0.00 0.00 0.00 86 1013.3
20260507145537 10 359 0.0 1.6 0.00 0.00 0.00 87 1013.2
20260507145037 10 359 0.0 1.6 0.00 0.00 0.00 88 1013.1
20260507144600 9 359 0.0 0.0 0.00 0.00 0.00 89 1013.2
20260507144038 9 359 0.0 0.0 0.00 0.00 0.00 90 1013.3
20260507143537 9 359 0.0 1.6 0.00 0.00 0.00 91 1013.2
20260507143037 9 359 0.0 1.6 0.00 0.00 0.00 90 1013.1
20260507142537 8 359 0.0 1.6 0.00 0.00 0.00 91 1013.1
20260507142037 8 359 0.0 1.6 0.00 0.00 0.00 90 1013.2
20260507141540 8 359 0.0 1.6 0.00 0.00 0.00 90 1013.1
20260507141036 8 359 0.0 3.2 0.00 0.00 0.00 90 1013.1
20260507140536 8 359 0.0 3.2 0.00 0.00 0.00 90 1013.1
20260507140035 8 359 0.0 3.2 0.00 0.00 0.00 90 1013.0
20260507135535 8 359 1.6 4.8 0.00 0.00 0.00 90 1013.1
20260507135035 8 359 1.6 4.8 0.00 0.00 0.00 90 1013.1
20260507134535 7 359 1.6 4.8 0.00 0.00 0.00 90 1012.9
20260507134034 7 359 1.6 4.8 0.00 0.00 0.00 90 1012.9
20260507133534 7 359 1.6 3.2 0.00 0.00 0.00 90 1012.8
20260507133037 7 359 0.0 4.8 0.00 0.00 0.00 91 1012.7
20260507132534 7 359 1.6 6.4 0.00 0.00 0.00 91 1012.7
20260507132034 7 359 3.2 6.4 0.00 0.00 0.00 91 1012.7
20260507131535 7 359 0.0 8.0 0.00 0.00 0.00 91 1012.6
20260507131035 7 359 3.2 8.0 0.00 0.00 0.00 91 1012.6
20260507130534 7 359 4.8 9.7 0.00 0.00 0.00 90 1012.6
20260507130032 7 359 6.4 9.7 0.00 0.00 0.00 90 1012.5
20260507125531 7 359 4.8 9.7 0.00 0.00 0.00 91 1012.6
20260507125033 7 359 1.6 4.8 0.00 0.00 0.00 91 1012.5
20260507124530 7 359 0.0 6.4 0.00 0.00 0.00 90 1012.5
20260507124033 7 359 3.2 6.4 0.00 0.00 0.00 90 1012.5
20260507123529 7 359 3.2 8.0 0.00 0.00 0.00 91 1012.4
20260507123029 7 359 3.2 8.0 0.00 0.00 0.00 91 1012.4
20260507122527 7 359 1.6 6.4 0.00 0.00 0.00 90 1012.4
20260507122027 7 359 1.6 4.8 0.00 0.00 0.00 90 1012.4
20260507121527 7 359 0.0 4.8 0.00 0.00 0.00 90 1012.4
20260507121026 7 359 1.6 4.8 0.00 0.00 0.00 89 1012.4
20260507120524 7 359 0.0 6.4 0.00 0.00 0.00 89 1012.4
20260507120024 8 359 1.6 8.0 0.00 0.00 0.00 88 1012.3
20260507115523 8 359 4.8 8.0 0.00 0.00 0.00 88 1012.3
20260507115022 8 359 1.6 6.4 0.00 0.00 0.00 89 1012.3
20260507114523 8 359 3.2 9.7 0.00 0.00 0.00 90 1012.3
20260507114023 8 359 4.8 9.7 0.00 0.00 0.00 90 1012.3
20260507113521 8 359 3.2 8.0 0.00 0.00 0.00 89 1012.2
20260507113023 8 359 3.2 6.4 0.00 0.00 0.00 89 1012.2
20260507112522 8 359 1.6 4.8 0.00 0.00 0.00 88 1012.3
20260507112023 8 359 1.6 3.2 0.00 0.00 0.00 88 1012.3
20260507111533 8 359 0.0 3.2 0.00 0.00 0.00 88 1012.3
20260507111017 8 359 1.6 3.2 0.00 0.00 0.00 88 1012.3
20260507110517 8 359 1.6 3.2 0.00 0.00 0.00 87 1012.3
20260507110017 8 359 0.0 1.6 0.00 0.00 0.00 85 1012.3
20260507105515 8 359 0.0 1.6 0.00 0.00 0.00 84 1012.3
20260507105015 9 359 0.0 1.6 0.00 0.00 0.00 84 1012.2
20260507104514 9 359 0.0 3.2 0.00 0.00 0.00 84 1012.2
20260507104015 9 359 1.6 3.2 0.00 0.00 0.00 83 1012.3
20260507103513 10 359 0.0 1.6 0.00 0.00 0.00 83 1012.2
20260507103011 10 359 0.0 3.2 0.00 0.00 0.00 83 1012.2
20260507102512 10 359 0.0 4.8 0.00 0.00 0.00 82 1012.3
20260507102011 10 359 1.6 4.8 0.00 0.00 0.00 80 1012.2
20260507101511 10 359 1.6 4.8 0.00 0.00 0.00 80 1012.2
20260507101009 10 359 0.0 4.8 0.00 0.00 0.00 80 1012.2
20260507100509 11 359 1.6 6.4 0.00 0.00 0.00 78 1012.2
20260507100012 11 359 1.6 6.4 0.00 0.00 0.00 77 1012.3
20260507095511 12 359 3.2 9.7 0.00 0.00 0.00 75 1012.2
20260507095011 12 359 4.8 9.7 0.00 0.00 0.00 74 1012.3
20260507094509 12 359 4.8 12.9 0.00 0.00 0.00 74 1012.5
20260507094010 12 359 8.0 12.9 0.00 0.00 0.00 75 1012.6
20260507093508 11 359 6.4 9.7 0.00 0.00 0.00 76 1012.7
20260507093009 11 359 1.6 8.0 0.00 0.00 0.00 77 1012.7
20260507092508 10 359 4.8 8.0 0.00 0.00 0.00 78 1012.6
20260507092010 10 359 0.0 4.8 0.00 0.00 0.00 83 1012.6
20260507091508 10 359 0.0 4.8 0.00 0.00 0.00 86 1012.6
20260507091009 10 359 0.0 3.2 0.00 0.00 0.00 86 1012.4
20260507090507 10 359 0.0 6.4 0.00 0.00 0.00 87 1012.4
20260507090011 10 359 1.6 6.4 0.00 0.00 0.00 88 1012.4
20260507085506 10 359 1.6 4.8 0.00 0.00 0.00 87 1012.4
20260507085005 10 359 0.0 6.4 0.00 0.00 0.00 85 1012.4
20260507084504 10 359 1.6 6.4 0.00 0.00 0.00 85 1012.1
20260507084002 10 359 1.6 4.8 0.00 0.00 0.00 83 1012.1
20260507083502 11 359 1.6 6.4 0.00 0.00 0.00 82 1012.2
20260507083002 11 359 0.0 17.7 0.00 0.00 0.00 80 1012.1
20260507082500 11 359 6.4 17.7 0.00 0.00 0.00 73 1012.2
20260507082000 12 359 1.6 9.7 0.00 0.00 0.00 75 1012.2
20260507081600 12 359 1.6 9.7 0.00 0.00 0.00 73 1012.1
20260507081100 12 359 4.8 12.9 0.00 0.00 0.00 73 1012.3
20260507080600 12 359 4.8 12.9 0.00 0.00 0.00 72 1012.5
20260507075559 11 359 0.0 4.8 0.00 0.00 0.00 74 1012.6
20260507075059 11 359 0.0 4.8 0.00 0.00 0.00 76 1012.5
20260507074559 11 359 0.0 4.8 0.00 0.00 0.00 76 1012.6
20260507074058 11 359 1.6 6.4 0.00 0.00 0.00 77 1012.7
20260507073558 11 359 1.6 6.4 0.00 0.00 0.00 78 1012.7
20260507073103 11 359 0.0 3.2 0.00 0.00 0.00 77 1012.6
20260507072557 11 359 0.0 4.8 0.00 0.00 0.00 79 1012.4
20260507072057 11 359 1.6 6.4 0.00 0.00 0.00 79 1012.3
20260507071558 10 359 3.2 8.0 0.00 0.00 0.00 77 1011.9
20260507071055 11 359 4.8 8.0 0.00 0.00 0.00 80 1012.1
20260507070554 11 359 1.6 8.0 0.00 0.00 0.00 78 1012.3
20260507070058 11 359 3.2 8.0 0.00 0.00 0.00 78 1012.5
20260507065552 11 359 0.0 8.0 0.00 0.00 0.00 77 1012.7
20260507065050 11 359 1.6 12.9 0.00 0.00 0.00 74 1012.6
20260507064551 12 359 4.8 49.9 0.00 0.00 0.00 72 1013.0
20260507064048 12 359 22.5 64.4 0.00 0.00 0.00 71 1013.3
20260507063550 13 359 48.3 64.4 0.00 0.00 0.00 65 1013.0
20260507063049 14 359 35.4 54.7 0.00 0.00 0.00 60 1012.8
20260507062544 14 359 17.7 32.2 0.00 0.00 0.00 60 1012.8
20260507062043 14 359 22.5 32.2 0.00 0.00 0.00 62 1012.6
20260507061543 15 359 20.9 35.4 0.00 0.00 0.00 61 1012.6
20260507061042 14 359 16.1 29.0 0.00 0.00 0.00 60 1012.7
20260507060539 14 359 14.5 27.4 0.00 0.00 0.00 64 1012.8
20260507060048 13 359 12.9 19.3 0.00 0.00 0.00 59 1012.8
20260507055539 14 359 3.2 9.7 0.00 0.00 0.00 58 1012.7
20260507055037 14 359 1.6 12.9 0.00 0.00 0.00 57 1012.4
20260507054546 13 359 3.2 12.9 0.00 0.00 0.00 57 1012.5
20260507054038 13 359 4.8 9.7 0.00 0.00 0.00 58 1012.7
20260507053538 13 359 1.6 14.5 0.00 0.00 0.00 60 1012.5
20260507053040 13 359 6.4 14.5 0.00 0.00 0.00 60 1012.6
20260507052537 14 359 3.2 17.7 0.00 0.00 0.00 59 1012.7
20260507052037 14 359 6.4 17.7 0.00 0.00 0.00 60 1012.6
20260507051537 15 359 6.4 19.3 0.00 0.00 0.00 58 1012.8
20260507051039 15 359 8.0 29.0 0.00 0.00 0.00 57 1012.6
20260507050536 15 359 9.7 30.6 0.00 0.00 0.00 61 1012.6
20260507050138 15 359 14.5 30.6 0.00 0.00 0.00 64 1012.5
20260507045538 15 359 6.4 9.7 0.00 0.00 0.00 71 1012.1
20260507045035 14 359 3.2 8.0 0.00 0.00 0.00 70 1011.9
20260507044549 14 359 3.2 9.7 0.00 0.00 0.00 71 1011.9
20260507044035 14 359 3.2 9.7 0.00 0.00 0.00 73 1011.8
20260507043535 13 359 3.2 6.4 0.00 0.00 0.00 73 1011.9
20260507043036 13 359 3.2 9.7 0.00 0.00 0.00 74 1011.8
20260507042536 13 359 4.8 9.7 0.00 0.00 0.00 76 1011.8
20260507042037 13 359 1.6 4.8 0.00 0.00 0.00 75 1011.7
20260507041536 13 359 0.0 3.2 0.00 0.00 0.00 74 1011.6
20260507041035 13 359 1.6 3.2 0.00 0.00 0.00 73 1011.7
20260507040537 13 359 0.0 3.2 0.00 0.00 0.00 73 1011.8
20260507040036 13 359 0.0 1.6 0.00 0.00 0.00 74 1011.8
20260507035534 13 359 0.0 1.6 0.00 0.00 0.00 75 1012.0
20260507035035 13 359 0.0 1.6 0.00 0.00 0.00 76 1011.9
20260507034538 12 359 0.0 1.6 0.00 0.00 0.00 77 1011.9
20260507034033 13 359 0.0 1.6 0.00 0.00 0.00 78 1011.8
20260507033533 13 359 0.0 1.6 0.00 0.00 0.00 78 1011.8
20260507033035 13 359 0.0 1.6 0.00 0.00 0.00 79 1011.8
20260507032533 13 359 0.0 3.2 0.00 0.00 0.00 79 1011.8
20260507032035 13 359 0.0 3.2 0.00 0.00 0.00 79 1011.7
20260507031533 13 359 0.0 3.2 0.00 0.00 0.00 79 1011.7
20260507031035 13 359 0.0 4.8 0.00 0.00 0.00 82 1011.6
20260507030536 13 359 3.2 4.8 0.00 0.00 0.00 80 1011.5
20260507030032 13 359 0.0 1.6 0.00 0.00 0.00 76 1011.5
20260507025532 13 359 0.0 1.6 0.00 0.00 0.00 76 1011.5
20260507025032 13 359 0.0 1.6 0.00 0.00 0.00 73 1011.4
20260507024535 14 359 0.0 1.6 0.00 0.00 0.00 71 1011.5
20260507024033 14 359 0.0 0.0 0.00 0.00 0.00 74 1011.5
20260507023532 14 359 0.0 0.0 0.00 0.00 0.00 70 1011.6
20260507023031 15 359 0.0 1.6 0.00 0.00 0.00 70 1011.6
20260507022534 15 359 0.0 3.2 0.00 0.00 0.00 65 1011.5
20260507022031 15 359 0.0 3.2 0.00 0.00 0.00 64 1011.5
20260507021532 15 359 0.0 1.6 0.00 0.00 0.00 63 1011.5
20260507021030 15 359 0.0 1.6 0.00 0.00 0.00 63 1011.5
20260507020530 15 359 0.0 0.0 0.00 0.00 0.00 64 1011.5
20260507020040 15 359 0.0 0.0 0.00 0.00 0.00 64 1011.6
20260507015534 15 359 0.0 0.0 0.00 0.00 0.00 64 1011.5
20260507015029 16 359 0.0 1.6 0.00 0.00 0.00 65 1011.6